EW9651 Weather Reports


Display with metric or nautical units.
time (UTC)temp
F
wind
direction
speed
MPH
gust
MPH
rain 1hr
in
rain 24hr
in
rain mn
in
humidity
%
barometer
mb
20260508202738 76 5 4.0 19.0 0.00 0.00 0.00 28 1014.8
20260508202241 76 355 3.0 10.0 0.00 0.00 0.00 25 1014.8
20260508201735 76 61 4.0 11.0 0.00 0.00 0.00 26 1014.9
20260508201705 76 355 4.0 11.0 0.00 0.00 0.00 26 1014.9
20260508200735 76 5 4.0 13.0 0.00 0.00 0.00 24 1015.1
20260508200237 76 28 3.0 13.0 0.00 0.00 0.00 25 1015.0
20260508195735 76 26 3.0 9.0 0.00 0.00 0.00 27 1015.1
20260508195239 76 338 3.0 9.0 0.00 0.00 0.00 27 1015.0
20260508194735 75 355 3.0 10.0 0.00 0.00 0.00 26 1015.0
20260508194638 75 323 3.0 10.0 0.00 0.00 0.00 27 1015.0
20260508193737 75 336 3.0 9.0 0.00 0.00 0.00 27 1015.0
20260508193628 75 5 4.0 10.0 0.00 0.00 0.00 25 1015.3
20260508192735 75 56 3.0 10.0 0.00 0.00 0.00 26 1015.1
20260508192235 75 347 3.0 9.0 0.00 0.00 0.00 27 1015.3
20260508191734 75 15 3.0 9.0 0.00 0.00 0.00 27 1015.3
20260508191239 75 5 5.0 15.0 0.00 0.00 0.00 27 1015.4
20260508190737 75 24 4.0 15.0 0.00 0.00 0.00 29 1015.4
20260508190243 75 17 3.0 8.0 0.00 0.00 0.00 30 1015.4
20260508185740 74 337 4.0 9.0 0.00 0.00 0.00 31 1015.5
20260508185234 74 338 4.0 9.0 0.00 0.00 0.00 28 1015.5
20260508185225 74 279 4.0 12.0 0.00 0.00 0.00 32 1015.5
20260508184235 75 302 5.0 12.0 0.00 0.00 0.00 28 1015.5
20260508183732 74 41 3.0 11.0 0.00 0.00 0.00 29 1015.6
20260508183233 74 30 3.0 8.0 0.00 0.00 0.00 30 1015.5
20260508182735 73 5 4.0 8.0 0.00 0.00 0.00 29 1015.6
20260508182233 73 19 3.0 11.0 0.00 0.00 0.00 28 1015.7
20260508181734 74 11 3.0 11.0 0.00 0.00 0.00 27 1015.7
20260508181234 74 335 3.0 17.0 0.00 0.00 0.00 30 1015.7
20260508180729 74 0 4.0 17.0 0.00 0.00 0.00 31 1015.7
20260508180229 73 258 3.0 9.0 0.00 0.00 0.00 29 1015.8
20260508175733 73 22 2.0 9.0 0.00 0.00 0.00 32 1015.8
20260508175227 74 336 2.0 8.0 0.00 0.00 0.00 30 1015.8
20260508175133 73 355 3.0 10.0 0.00 0.00 0.00 31 1015.8
20260508174231 73 66 3.0 10.0 0.00 0.00 0.00 32 1015.9
20260508173727 73 55 2.0 9.0 0.00 0.00 0.00 33 1015.9
20260508173229 73 5 2.0 4.0 0.00 0.00 0.00 34 1015.8
20260508172729 73 314 2.0 5.0 0.00 0.00 0.00 32 1015.8
20260508172229 73 344 2.0 5.0 0.00 0.00 0.00 30 1015.9
20260508172038 74 305 3.0 10.0 0.00 0.00 0.00 31 1015.8
20260508171913 74 5 2.0 5.0 0.00 0.00 0.00 30 1015.8
20260508170740 74 9 4.0 12.0 0.00 0.00 0.00 28 1015.6
20260508170230 74 66 5.0 14.0 0.00 0.00 0.00 28 1015.7
20260508165739 74 51 5.0 14.0 0.00 0.00 0.00 31 1015.6
20260508165335 73 54 3.0 11.0 0.00 0.00 0.00 32 1015.6
20260508165327 73 344 2.0 9.0 0.00 0.00 0.00 35 1015.6
20260508165256 74 36 5.0 12.0 0.00 0.00 0.00 30 1015.6
20260508163728 72 38 2.0 9.0 0.00 0.00 0.00 36 1015.6
20260508163232 72 51 1.0 4.0 0.00 0.00 0.00 36 1015.5
20260508163139 71 355 1.0 4.0 0.00 0.00 0.00 35 1015.5
20260508162224 71 313 1.0 4.0 0.00 0.00 0.00 34 1015.5
20260508161724 70 248 1.0 4.0 0.00 0.00 0.00 36 1015.5
20260508161225 70 292 1.0 5.0 0.00 0.00 0.00 35 1015.4
20260508160722 69 292 1.0 5.0 0.00 0.00 0.00 39 1015.4
20260508160224 68 283 1.0 3.0 0.00 0.00 0.00 38 1015.4
20260508155722 67 283 0.0 2.0 0.00 0.00 0.00 41 1015.3
20260508155225 66 283 0.0 2.0 0.00 0.00 0.00 39 1015.4
20260508154720 65 283 1.0 4.0 0.00 0.00 0.00 40 1015.4
20260508154217 65 283 1.0 4.0 0.00 0.00 0.00 41 1015.3
20260508153721 64 273 0.0 2.0 0.00 0.00 0.00 44 1015.3
20260508153523 61 273 1.0 3.0 0.00 0.00 0.00 44 1015.3
20260508153356 63 273 1.0 3.0 0.00 0.00 0.00 41 1015.3
20260508152901 62 273 1.0 3.0 0.00 0.00 0.00 43 1015.3
20260508151712 61 273 1.0 3.0 0.00 0.00 0.00 45 1015.3
20260508151216 60 135 0.0 2.0 0.00 0.00 0.00 48 1015.1
20260508150713 60 135 0.0 2.0 0.00 0.00 0.00 48 1015.1
20260508150205 60 135 0.0 2.0 0.00 0.00 0.00 47 1015.0
20260508145702 59 135 0.0 1.0 0.00 0.00 0.00 45 1015.0
20260508145205 59 135 1.0 4.0 0.00 0.00 0.00 45 1015.0
20260508145058 59 135 2.0 4.0 0.00 0.00 0.00 47 1015.0
20260508144208 58 92 1.0 3.0 0.00 0.00 0.00 47 1015.0
20260508143701 58 92 1.0 4.0 0.00 0.00 0.00 49 1015.0
20260508143201 57 92 2.0 4.0 0.00 0.00 0.00 50 1015.0
20260508142704 56 92 2.0 4.0 0.00 0.00 0.00 52 1015.0
20260508142202 56 78 2.0 4.0 0.00 0.00 0.00 53 1015.0
20260508141705 55 96 2.0 4.0 0.00 0.00 0.00 54 1014.9
20260508141201 54 108 2.0 4.0 0.00 0.00 0.00 55 1014.9
20260508140700 54 108 3.0 5.0 0.00 0.00 0.00 57 1014.9
20260508140637 53 108 2.0 5.0 0.00 0.00 0.00 58 1014.9
20260508135700 52 111 1.0 3.0 0.00 0.00 0.00 62 1014.8
20260508135206 52 111 1.0 3.0 0.00 0.00 0.00 64 1014.8
20260508134702 51 111 1.0 2.0 0.00 0.00 0.00 65 1014.8
20260508134158 51 111 1.0 2.0 0.00 0.00 0.00 64 1014.8
20260508133657 50 111 1.0 2.0 0.00 0.00 0.00 63 1014.7
20260508133159 50 111 2.0 4.0 0.00 0.00 0.00 64 1014.7
20260508132652 50 111 2.0 4.0 0.00 0.00 0.00 64 1014.7
20260508132151 49 111 2.0 4.0 0.00 0.00 0.00 63 1014.6
20260508131652 49 105 2.0 4.0 0.00 0.00 0.00 65 1014.7
20260508131610 49 105 3.0 4.0 0.00 0.00 0.00 64 1014.6
20260508130640 49 267 2.0 3.0 0.00 0.00 0.00 64 1014.4
20260508130137 49 267 1.0 3.0 0.00 0.00 0.00 63 1014.4
20260508125732 50 121 2.0 3.0 0.00 0.00 0.00 61 1014.0
20260508125728 50 267 2.0 3.0 0.00 0.00 0.00 62 1014.2
20260508125657 49 267 0.0 2.0 0.00 0.00 0.00 63 1014.4
20260508125141 49 267 1.0 3.0 0.00 0.00 0.00 62 1014.3
20260508123639 50 121 2.0 6.0 0.00 0.00 0.00 62 1014.0
20260508123134 51 121 3.0 6.0 0.00 0.00 0.00 60 1014.0
20260508122634 51 121 3.0 4.0 0.00 0.00 0.00 61 1014.0
20260508122136 51 121 3.0 4.0 0.00 0.00 0.00 59 1013.9
20260508122049 50 121 3.0 4.0 0.00 0.00 0.00 59 1013.9
20260508121558 49 121 3.0 4.0 0.00 0.00 0.00 60 1013.9
20260508121132 50 121 3.0 4.0 0.00 0.00 0.00 59 1013.8
20260508120129 49 83 3.0 4.0 0.00 0.00 0.00 61 1013.9
20260508115634 50 71 3.0 4.0 0.00 0.00 0.00 62 1013.9
20260508115133 50 71 2.0 4.0 0.00 0.00 0.00 62 1013.9
20260508114629 50 71 3.0 4.0 0.00 0.00 0.00 61 1013.8
20260508114529 50 71 3.0 4.0 0.00 0.00 0.00 61 1013.8
20260508113630 50 96 3.0 6.0 0.00 0.00 0.00 61 1013.8
20260508113132 50 96 3.0 6.0 0.00 0.00 0.00 61 1013.8
20260508112632 50 96 3.0 6.0 0.00 0.00 0.00 62 1013.6
20260508112129 50 85 3.0 6.0 0.00 0.00 0.00 63 1013.6
20260508111634 50 85 3.0 4.0 0.00 0.00 0.00 62 1013.6
20260508111137 50 85 3.0 4.0 0.00 0.00 0.00 63 1013.5
20260508111044 50 85 3.0 4.0 0.00 0.00 0.00 62 1013.5
20260508110129 50 85 2.0 3.0 0.00 0.00 0.00 63 1013.5
20260508105630 50 85 2.0 4.0 0.00 0.00 0.00 62 1013.5
20260508105133 50 85 2.0 4.0 0.00 0.00 0.00 61 1013.4
20260508104629 50 85 1.0 3.0 0.00 0.00 0.00 60 1013.5
20260508104128 50 85 2.0 4.0 0.00 0.00 0.00 61 1013.4
20260508103631 50 85 3.0 4.0 0.00 0.00 0.00 60 1013.4
20260508103133 50 85 3.0 4.0 0.00 0.00 0.00 60 1013.4
20260508102634 50 85 2.0 4.0 0.00 0.00 0.00 60 1013.4
20260508102626 51 85 2.0 4.0 0.00 0.00 0.00 60 1013.4
20260508101631 51 85 2.0 4.0 0.00 0.00 0.00 60 1013.4
20260508101132 51 85 2.0 3.0 0.00 0.00 0.00 59 1013.4
20260508100633 51 85 2.0 3.0 0.00 0.00 0.00 59 1013.3
20260508100129 51 85 2.0 4.0 0.00 0.00 0.00 59 1013.3
20260508095634 51 85 1.0 4.0 0.00 0.00 0.00 59 1013.3
20260508095540 51 85 1.0 3.0 0.00 0.00 0.00 59 1013.3
20260508095105 51 85 2.0 4.0 0.00 0.00 0.00 58 1013.2
20260508094128 51 85 2.0 4.0 0.00 0.00 0.00 58 1013.2
20260508094108 51 85 2.0 4.0 0.00 0.00 0.00 58 1013.2
20260508093132 51 85 2.0 4.0 0.00 0.00 0.00 57 1013.2
20260508092630 51 85 2.0 4.0 0.00 0.00 0.00 57 1013.1
20260508092132 51 85 2.0 4.0 0.00 0.00 0.00 59 1013.1
20260508091630 52 85 2.0 6.0 0.00 0.00 0.00 58 1013.1
20260508091532 52 85 4.0 6.0 0.00 0.00 0.00 57 1013.1
20260508091323 52 85 3.0 6.0 0.00 0.00 0.00 58 1013.1
20260508090605 52 85 3.0 6.0 0.00 0.00 0.00 57 1013.1
20260508085630 52 85 3.0 5.0 0.00 0.00 0.00 57 1013.1
20260508085130 52 85 3.0 6.0 0.00 0.00 0.00 57 1013.1
20260508084637 52 85 3.0 6.0 0.00 0.00 0.00 56 1013.1
20260508084133 53 85 3.0 6.0 0.00 0.00 0.00 55 1013.2
20260508083635 53 85 3.0 6.0 0.00 0.00 0.00 55 1013.2
20260508083559 53 85 3.0 6.0 0.00 0.00 0.00 54 1013.2
20260508082629 53 85 3.0 6.0 0.00 0.00 0.00 54 1013.2
20260508082529 53 85 3.0 6.0 0.00 0.00 0.00 54 1013.2
20260508081628 53 85 3.0 6.0 0.00 0.00 0.00 54 1013.1
20260508081131 53 85 3.0 4.0 0.00 0.00 0.00 54 1013.1
20260508081102 53 85 3.0 3.0 0.00 0.00 0.00 54 1013.1
20260508080135 53 85 3.0 4.0 0.00 0.00 0.00 54 1013.1
20260508080127 53 85 2.0 4.0 0.00 0.00 0.00 54 1013.0
20260508075536 53 67 2.0 4.0 0.00 0.00 0.00 53 1013.1
20260508074632 53 60 2.0 4.0 0.00 0.00 0.00 53 1013.1
20260508074130 54 60 1.0 4.0 0.00 0.00 0.00 52 1013.1
20260508073626 54 60 1.0 3.0 0.00 0.00 0.00 53 1013.0
20260508073130 54 60 1.0 2.0 0.00 0.00 0.00 53 1013.0
20260508073050 55 60 2.0 3.0 0.00 0.00 0.00 51 1013.0
20260508072630 55 60 1.0 3.0 0.00 0.00 0.00 53 1013.0
20260508071622 55 49 1.0 3.0 0.00 0.00 0.00 51 1013.0
20260508071122 55 49 0.0 2.0 0.00 0.00 0.00 49 1013.0
20260508070625 56 49 0.0 1.0 0.00 0.00 0.00 48 1013.1
20260508070122 56 49 0.0 2.0 0.00 0.00 0.00 49 1013.1
20260508065622 56 49 0.0 2.0 0.00 0.00 0.00 48 1013.0
20260508065557 56 49 2.0 4.0 0.00 0.00 0.00 49 1013.0
20260508064621 56 90 3.0 6.0 0.00 0.00 0.00 46 1012.8
20260508064447 56 102 3.0 6.0 0.00 0.00 0.00 47 1013.0
20260508064301 56 105 3.0 6.0 0.00 0.00 0.00 47 1013.0
20260508063122 56 106 4.0 6.0 0.00 0.00 0.00 48 1013.1
20260508062624 56 84 3.0 6.0 0.00 0.00 0.00 48 1012.8
20260508062121 56 90 3.0 6.0 0.00 0.00 0.00 48 1012.8
20260508061624 56 88 3.0 5.0 0.00 0.00 0.00 48 1013.0
20260508061552 56 85 3.0 6.0 0.00 0.00 0.00 50 1012.8
20260508060624 56 85 3.0 6.0 0.00 0.00 0.00 50 1012.8
20260508060121 57 221 3.0 4.0 0.00 0.00 0.00 48 1012.8
20260508055622 57 221 2.0 3.0 0.00 0.00 0.00 47 1012.7
20260508055123 57 221 2.0 3.0 0.00 0.00 0.00 47 1012.7
20260508054625 57 221 2.0 3.0 0.00 0.00 0.00 46 1012.6
20260508054120 58 221 2.0 4.0 0.00 0.00 0.00 46 1012.5
20260508054101 58 221 3.0 4.0 0.00 0.00 0.00 47 1012.4
20260508053134 58 221 2.0 4.0 0.00 0.00 0.00 46 1012.4
20260508052633 58 221 2.0 4.0 0.00 0.00 0.00 47 1012.4
20260508052121 59 221 3.0 4.0 0.00 0.00 0.00 45 1012.4
20260508051619 59 221 3.0 4.0 0.00 0.00 0.00 45 1012.4
20260508051503 60 221 2.0 4.0 0.00 0.00 0.00 43 1012.4
20260508051316 60 221 3.0 4.0 0.00 0.00 0.00 43 1012.4
20260508050111 60 221 2.0 3.0 0.00 0.00 0.00 42 1012.4
20260508045609 60 221 2.0 3.0 0.00 0.00 0.00 41 1012.4
20260508045109 61 221 3.0 4.0 0.00 0.00 0.00 41 1012.5
20260508044612 61 221 2.0 4.0 0.00 0.00 0.00 40 1012.4
20260508044108 61 221 2.0 3.0 0.00 0.00 0.00 40 1012.5
20260508043610 61 221 2.0 3.0 0.00 0.00 0.00 40 1012.5
20260508043101 61 221 2.0 4.0 0.00 0.00 0.00 40 1012.5
20260508042605 61 221 2.0 4.0 0.00 0.00 0.00 39 1012.5
20260508042106 62 221 2.0 4.0 0.00 0.00 0.00 39 1012.6
20260508041602 62 221 1.0 2.0 0.00 0.00 0.00 38 1012.4
20260508041104 62 221 1.0 2.0 0.00 0.00 0.00 39 1012.4
20260508040602 62 221 1.0 3.0 0.00 0.00 0.00 38 1012.4
20260508035604 63 221 1.0 3.0 0.00 0.00 0.00 40 1012.3
20260508035100 63 221 2.0 5.0 0.00 0.00 0.00 35 1012.3
20260508034553 64 205 2.0 5.0 0.00 0.00 0.00 36 1012.2
20260508034045 64 68 1.0 4.0 0.00 0.00 0.00 35 1012.0
20260508033543 65 68 2.0 4.0 0.00 0.00 0.00 35 1012.2
20260508033042 65 31 3.0 6.0 0.00 0.00 0.00 35 1012.0
20260508032544 65 73 4.0 7.0 0.00 0.00 0.00 33 1012.0
20260508032046 65 94 5.0 9.0 0.00 0.00 0.00 33 1012.0
20260508031537 66 78 5.0 9.0 0.00 0.00 0.00 33 1012.0
20260508031433 66 91 4.0 9.0 0.00 0.00 0.00 32 1011.9
20260508030539 67 97 3.0 6.0 0.00 0.00 0.00 32 1011.8
20260508030033 67 90 3.0 6.0 0.00 0.00 0.00 31 1011.8
20260508030020 68 73 3.0 4.0 0.00 0.00 0.00 30 1011.8
20260508025030 68 76 3.0 5.0 0.00 0.00 0.00 30 1011.8
20260508024534 69 76 3.0 5.0 0.00 0.00 0.00 29 1011.8
20260508024032 69 61 2.0 3.0 0.00 0.00 0.00 29 1011.8
20260508023529 70 51 1.0 2.0 0.00 0.00 0.00 29 1011.8
20260508023033 71 51 1.0 2.0 0.00 0.00 0.00 27 1011.7
20260508022529 71 51 1.0 5.0 0.00 0.00 0.00 27 1011.7
20260508022345 72 48 2.0 4.0 0.00 0.00 0.00 29 1011.6
20260508022215 71 51 2.0 5.0 0.00 0.00 0.00 27 1011.7
20260508021029 72 71 1.0 3.0 0.00 0.00 0.00 29 1011.5
20260508020923 73 71 1.0 3.0 0.00 0.00 0.00 26 1011.5
20260508020030 73 71 1.0 3.0 0.00 0.00 0.00 29 1011.5
20260508015530 73 71 0.0 2.0 0.00 0.00 0.00 33 1011.5
20260508015029 73 71 1.0 2.0 0.00 0.00 0.00 25 1011.5
20260508014529 73 71 0.0 2.0 0.00 0.00 0.00 24 1011.5
20260508014030 73 71 1.0 7.0 0.00 0.00 0.00 26 1011.5
20260508013529 73 71 2.0 7.0 0.00 0.00 0.00 25 1011.5
20260508013032 73 117 2.0 5.0 0.00 0.00 0.00 28 1011.5
20260508012529 73 44 3.0 8.0 0.00 0.00 0.00 28 1011.5
20260508012030 73 76 4.0 8.0 0.00 0.00 0.00 24 1011.5
20260508011532 73 86 4.0 9.0 0.00 0.00 0.00 27 1011.5
20260508011030 73 49 4.0 9.0 0.00 0.00 0.00 26 1011.5
20260508010529 73 39 4.0 6.0 0.00 0.00 0.00 27 1011.6
20260508010019 73 62 4.0 8.0 0.00 0.00 0.00 29 1011.6
20260508005520 73 84 4.0 8.0 0.00 0.00 0.00 26 1011.6
20260508005022 73 67 4.0 7.0 0.00 0.00 0.00 27 1011.7
20260508004522 73 121 3.0 7.0 0.00 0.00 0.00 26 1011.8
20260508004101 73 84 3.0 7.0 0.00 0.00 0.00 26 1011.8
20260508004037 73 77 3.0 7.0 0.00 0.00 0.00 27 1011.8
20260508003027 73 75 2.0 3.0 0.00 0.00 0.00 27 1011.8
20260508002524 73 58 2.0 7.0 0.00 0.00 0.00 31 1011.9
20260508002020 73 41 3.0 7.0 0.00 0.00 0.00 29 1011.9
20260508001520 74 68 4.0 9.0 0.00 0.00 0.00 27 1011.9
20260508001017 74 59 3.0 9.0 0.00 0.00 0.00 26 1011.9
20260508000519 74 76 3.0 9.0 0.00 0.00 0.00 28 1012.0
20260508000020 74 83 2.0 9.0 0.00 0.00 0.00 26 1012.0
20260507235520 74 140 1.0 4.0 0.00 0.00 0.00 31 1012.2
20260507235017 74 140 2.0 7.0 0.00 0.00 0.00 25 1012.2
20260507234519 74 87 2.0 7.0 0.00 0.00 0.00 25 1012.3
20260507234015 74 115 2.0 9.0 0.00 0.00 0.00 29 1012.3
20260507233516 74 328 4.0 11.0 0.00 0.00 0.00 27 1012.4
20260507233049 74 92 2.0 8.0 0.00 0.00 0.00 28 1012.4
20260507233034 74 69 4.0 11.0 0.00 0.00 0.00 29 1012.3
20260507232016 74 79 1.0 8.0 0.00 0.00 0.00 26 1012.4
20260507231517 74 0 2.0 5.0 0.00 0.00 0.00 29 1012.6
20260507231432 74 12 3.0 10.0 0.00 0.00 0.00 29 1012.6
20260507230512 74 355 3.0 10.0 0.00 0.00 0.00 28 1012.7
20260507230012 75 53 2.0 7.0 0.00 0.00 0.00 29 1012.7
20260507225512 75 0 2.0 4.0 0.00 0.00 0.00 29 1012.8
20260507225015 75 329 2.0 5.0 0.00 0.00 0.00 29 1012.8
20260507224543 76 348 6.0 12.0 0.00 0.00 0.00 27 1013.1
20260507224523 76 314 3.0 10.0 0.00 0.00 0.00 28 1012.8
20260507223957 76 40 5.0 12.0 0.00 0.00 0.00 24 1013.0
20260507223014 77 51 3.0 12.0 0.00 0.00 0.00 26 1013.1
20260507222510 77 125 2.0 10.0 0.00 0.00 0.00 25 1013.2
20260507222006 76 50 2.0 10.0 0.00 0.00 0.00 25 1013.3
20260507221506 76 0 2.0 4.0 0.00 0.00 0.00 27 1013.2
20260507221010 76 68 2.0 4.0 0.00 0.00 0.00 27 1013.3
20260507220504 75 42 2.0 6.0 0.00 0.00 0.00 27 1013.3
20260507220004 76 355 2.0 7.0 0.00 0.00 0.00 28 1013.4
20260507215601 75 342 3.0 8.0 0.00 0.00 0.00 30 1013.5
20260507215531 76 5 2.0 8.0 0.00 0.00 0.00 28 1013.4
20260507214505 75 312 2.0 11.0 0.00 0.00 0.00 28 1013.6
20260507214005 75 355 3.0 11.0 0.00 0.00 0.00 27 1013.6
20260507213505 75 12 3.0 11.0 0.00 0.00 0.00 29 1013.6
20260507213001 75 99 3.0 11.0 0.00 0.00 0.00 26 1013.8
20260507212502 75 323 2.0 9.0 0.00 0.00 0.00 29 1013.9
20260507212002 76 82 2.0 5.0 0.00 0.00 0.00 26 1014.0
20260507211942 77 330 3.0 5.0 0.00 0.00 0.00 26 1014.0
20260507211438 78 17 3.0 7.0 0.00 0.00 0.00 25 1014.0
20260507210904 79 351 2.0 7.0 0.00 0.00 0.00 27 1014.1
20260507205945 79 334 2.0 5.0 0.00 0.00 0.00 26 1014.2
20260507205439 79 9 1.0 5.0 0.00 0.00 0.00 28 1014.2
20260507204935 79 325 2.0 10.0 0.00 0.00 0.00 26 1014.2
20260507204439 79 165 3.0 10.0 0.00 0.00 0.00 24 1014.3
20260507203935 80 260 3.0 9.0 0.00 0.00 0.00 24 1014.3
20260507203434 80 264 5.0 10.0 0.00 0.00 0.00 21 1014.4